When you browse on this site, cookies collect data to enhance your experience and personalize the content and advertising you see.
Visit our Privacy Policy to learn more. By continuing to use the site, you agree to this use of cookies and data.
  • In Hungary
  • List of Countries
  • For 7 days
  • Water Temperature
  • Satellite Maps
  • Weather Map
  • News
  • Weather Widgets
  • user-avatar
    Login

    Hourly Weather Mahdia

    Today, 21 March, Thursday

    Time Temperature Precipitation Wind Pressure Humidity
    00:00 +13°C° 2.2 mm 12 mps 759 mmHg 84%
    01:00 +13°C° 0 mm 12 mps 760 mmHg 83%
    02:00 +13°C° 1.7 mm 11 mps 759 mmHg 85%
    03:00 +13°C° 1.7 mm 9 mps 759 mmHg 86%
    04:00 +12°C° 1.7 mm 8 mps 759 mmHg 88%
    05:00 +12°C° 0.5 mm 7 mps 759 mmHg 86%
    06:00 +12°C° 0.5 mm 5 mps 759 mmHg 84%
    07:00 +12°C° 0.5 mm 4 mps 759 mmHg 83%
    08:00 +13°C° 0.1 mm 4 mps 759 mmHg 75%
    09:00 +14°C° 0.1 mm 4 mps 759 mmHg 67%
    10:00 +15°C° 0.1 mm 4 mps 759 mmHg 60%
    11:00 +17°C° 0 mm 4 mps 759 mmHg 55%
    12:00 +17°C° 0 mm 5 mps 759 mmHg 50%
    13:00 +19°C° 0 mm 6 mps 759 mmHg 45%
    14:00 +19°C° 0 mm 6 mps 759 mmHg 45%
    15:00 +18°C° 0 mm 7 mps 759 mmHg 45%
    16:00 +18°C° 0 mm 7 mps 759 mmHg 45%
    17:00 +17°C° 0 mm 7 mps 759 mmHg 50%
    18:00 +16°C° 0 mm 6 mps 760 mmHg 55%
    19:00 +15°C° 0 mm 6 mps 760 mmHg 59%
    20:00 +14°C° 0 mm 6 mps 761 mmHg 63%
    21:00 +14°C° 0 mm 6 mps 761 mmHg 67%
    22:00 +14°C° 0 mm 5 mps 762 mmHg 71%
    23:00 +13°C° 0.2 mm 6 mps 762 mmHg 71%

    Tomorrow, 22 March, Friday

    Time Temperature Precipitation Wind Pressure Humidity
    00:00 +13°C° 0.2 mm 6 mps 762 mmHg 70%
    01:00 +13°C° 0.2 mm 6 mps 763 mmHg 70%
    02:00 +13°C° 0.1 mm 6 mps 763 mmHg 70%
    03:00 +13°C° 0.1 mm 6 mps 763 mmHg 71%
    04:00 +13°C° 0.1 mm 5 mps 763 mmHg 72%
    05:00 +13°C° 0.2 mm 5 mps 763 mmHg 72%
    06:00 +13°C° 0.2 mm 4 mps 763 mmHg 71%
    07:00 +14°C° 0.2 mm 3 mps 764 mmHg 71%
    08:00 +14°C° 0.2 mm 3 mps 764 mmHg 69%
    09:00 +14°C° 0.2 mm 3 mps 764 mmHg 66%
    10:00 +16°C° 0.2 mm 3 mps 764 mmHg 63%
    11:00 +15°C° 0.4 mm 4 mps 764 mmHg 61%
    12:00 +17°C° 0.4 mm 4 mps 764 mmHg 60%
    13:00 +16°C° 0.4 mm 5 mps 764 mmHg 58%
    14:00 +16°C° 0.1 mm 5 mps 764 mmHg 60%
    15:00 +16°C° 0.1 mm 5 mps 763 mmHg 62%
    16:00 +16°C° 0.1 mm 5 mps 763 mmHg 64%
    17:00 +15°C° 0.1 mm 6 mps 763 mmHg 69%
    18:00 +14°C° 0.1 mm 6 mps 764 mmHg 73%
    19:00 +13°C° 0.1 mm 6 mps 764 mmHg 78%
    20:00 +13°C° 0 mm 6 mps 764 mmHg 78%
    21:00 +13°C° 0 mm 5 mps 764 mmHg 78%
    22:00 +13°C° 0 mm 5 mps 765 mmHg 78%
    23:00 +13°C° 0 mm 5 mps 764 mmHg 79%

    Day after tomorrow, 23 March, Saturday

    Time Temperature Precipitation Wind Pressure Humidity
    00:00 +13°C° 0 mm 5 mps 764 mmHg 81%
    01:00 +12°C° 0 mm 5 mps 764 mmHg 82%
    02:00 +13°C° 0.1 mm 5 mps 764 mmHg 82%
    03:00 +13°C° 0.1 mm 5 mps 763 mmHg 83%
    04:00 +13°C° 0.1 mm 4 mps 763 mmHg 83%
    05:00 +13°C° 0.3 mm 5 mps 763 mmHg 84%
    06:00 +13°C° 0.3 mm 6 mps 763 mmHg 85%
    07:00 +13°C° 0.3 mm 6 mps 763 mmHg 86%
    08:00 +12°C° 1.6 mm 7 mps 764 mmHg 85%
    09:00 +13°C° 1.6 mm 8 mps 764 mmHg 84%
    10:00 +13°C° 1.6 mm 10 mps 764 mmHg 83%
    11:00 +13°C° 1.6 mm 10 mps 764 mmHg 82%
    12:00 +13°C° 1.6 mm 10 mps 765 mmHg 82%
    13:00 +13°C° 1.6 mm 10 mps 765 mmHg 81%
    14:00 +13°C° 1.4 mm 10 mps 765 mmHg 82%
    15:00 +13°C° 1.4 mm 10 mps 765 mmHg 82%
    16:00 +12°C° 1.4 mm 9 mps 764 mmHg 82%
    17:00 +12°C° 0.2 mm 9 mps 765 mmHg 82%
    18:00 +12°C° 0.2 mm 8 mps 765 mmHg 81%
    19:00 +12°C° 0.2 mm 7 mps 766 mmHg 81%
    20:00 +12°C° 0.1 mm 7 mps 766 mmHg 81%
    21:00 +12°C° 0.1 mm 7 mps 767 mmHg 82%
    22:00 +13°C° 0.1 mm 6 mps 767 mmHg 82%
    23:00 +13°C° 0 mm 6 mps 767 mmHg 82%

    24 March, Sunday

    Time Temperature Precipitation Wind Pressure Humidity
    00:00 +13°C° 0 mm 6 mps 767 mmHg 81%
    01:00 +13°C° 0 mm 5 mps 767 mmHg 81%
    02:00 +13°C° 0 mm 6 mps 767 mmHg 82%
    03:00 +11°C° 0 mm 6 mps 767 mmHg 83%
    04:00 +11°C° 0 mm 6 mps 767 mmHg 84%
    05:00 +11°C° 0 mm 6 mps 767 mmHg 85%
    06:00 +11°C° 0 mm 6 mps 767 mmHg 86%
    07:00 +13°C° 0 mm 6 mps 768 mmHg 87%
    08:00 +14°C° 0 mm 5 mps 768 mmHg 81%
    09:00 +15°C° 0 mm 5 mps 768 mmHg 76%
    10:00 +16°C° 0 mm 5 mps 769 mmHg 70%
    11:00 +17°C° 0 mm 4 mps 768 mmHg 67%
    12:00 +18°C° 0 mm 4 mps 768 mmHg 64%
    13:00 +18°C° 0 mm 3 mps 768 mmHg 61%
    14:00 +18°C° 0 mm 3 mps 768 mmHg 60%
    15:00 +18°C° 0 mm 3 mps 767 mmHg 60%
    16:00 +18°C° 0 mm 3 mps 767 mmHg 60%
    17:00 +17°C° 0 mm 3 mps 767 mmHg 63%
    18:00 +16°C° 0 mm 3 mps 767 mmHg 67%
    19:00 +15°C° 0 mm 2 mps 768 mmHg 71%
    20:00 +15°C° 0 mm 2 mps 768 mmHg 73%
    21:00 +15°C° 0 mm 2 mps 768 mmHg 75%
    22:00 +15°C° 0 mm 2 mps 769 mmHg 77%
    23:00 +14°C° 0 mm 1 mps 768 mmHg 79%

    25 March, Monday

    Time Temperature Precipitation Wind Pressure Humidity
    00:00 +14°C° 0 mm 1 mps 768 mmHg 80%
    01:00 +14°C° 0 mm 1 mps 768 mmHg 82%
    02:00 +13°C° 0 mm 1 mps 767 mmHg 83%
    03:00 +13°C° 0 mm 1 mps 767 mmHg 85%
    04:00 +13°C° 0 mm 1 mps 767 mmHg 86%
    05:00 +13°C° 0 mm 1 mps 767 mmHg 86%
    06:00 +12°C° 0 mm 0 mps 767 mmHg 85%
    07:00 +12°C° 0 mm 0 mps 767 mmHg 85%
    08:00 +15°C° 0 mm 1 mps 767 mmHg 79%
    09:00 +16°C° 0 mm 1 mps 767 mmHg 73%
    10:00 +18°C° 0 mm 1 mps 767 mmHg 67%
    11:00 +18°C° 0 mm 1 mps 767 mmHg 63%
    12:00 +18°C° 0 mm 2 mps 766 mmHg 60%
    13:00 +19°C° 0 mm 3 mps 766 mmHg 56%
    14:00 +19°C° 0 mm 3 mps 766 mmHg 56%
    15:00 +19°C° 0 mm 4 mps 765 mmHg 56%
    16:00 +19°C° 0 mm 4 mps 765 mmHg 55%
    17:00 +18°C° 0 mm 4 mps 765 mmHg 59%
    18:00 +17°C° 0 mm 4 mps 765 mmHg 63%
    19:00 +15°C° 0 mm 4 mps 764 mmHg 67%
    20:00 +15°C° 0 mm 4 mps 765 mmHg 69%
    21:00 +15°C° 0 mm 4 mps 765 mmHg 71%
    22:00 +14°C° 0 mm 4 mps 765 mmHg 73%
    23:00 +14°C° 0 mm 3 mps 765 mmHg 74%

    26 March, Tuesday

    Time Temperature Precipitation Wind Pressure Humidity
    00:00 +14°C° 0 mm 3 mps 765 mmHg 75%
    01:00 +15°C° 0 mm 2 mps 765 mmHg 76%
    02:00 +14°C° 0 mm 2 mps 764 mmHg 76%
    03:00 +14°C° 0 mm 2 mps 764 mmHg 76%
    04:00 +14°C° 0 mm 2 mps 764 mmHg 76%
    05:00 +14°C° 0 mm 2 mps 764 mmHg 75%
    06:00 +14°C° 0 mm 2 mps 764 mmHg 74%
    07:00 +14°C° 0 mm 2 mps 764 mmHg 72%
    08:00 +16°C° 0 mm 2 mps 764 mmHg 68%
    09:00 +17°C° 0 mm 2 mps 764 mmHg 64%
    10:00 +18°C° 0 mm 2 mps 765 mmHg 60%
    11:00 +19°C° 0 mm 3 mps 764 mmHg 55%
    12:00 +19°C° 0 mm 3 mps 764 mmHg 50%
    13:00 +20°C° 0 mm 4 mps 764 mmHg 45%
    14:00 +20°C° 0 mm 3 mps 764 mmHg 42%
    15:00 +20°C° 0 mm 3 mps 763 mmHg 40%
    16:00 +20°C° 0 mm 3 mps 763 mmHg 37%
    17:00 +19°C° 0 mm 3 mps 763 mmHg 40%
    18:00 +18°C° 0 mm 2 mps 763 mmHg 44%
    19:00 +17°C° 0 mm 2 mps 764 mmHg 47%
    20:00 +16°C° 0 mm 2 mps 764 mmHg 50%
    21:00 +16°C° 0 mm 1 mps 764 mmHg 53%
    22:00 +15°C° 0 mm 0 mps 765 mmHg 56%
    23:00 +15°C° 0 mm 1 mps 765 mmHg 57%
    Show more